www.pogodaiklimat.ru

Погода и климат >> Архив погоды >> Беларусь >> Марьина Горка


ПОГОДА в Марьиной Горке

  • Прогноз погоды в Марьиной Горке
  • Монитор погоды в Марьиной Горке

АРХИВ ПОГОДЫ в Марьиной Горке

Время (UTC), дата Ветер
(напр.,м/с)
 
Видим.   Явления Облачность Т
(С)
Тd
(С)
f
(%)
Тe
(С)
Тes
(С)
Комфортность P
(гПа)
Po
(гПа)
Тmin
(С)
Tmax
(С)
R
(мм)
R24
(мм)
S
(см)
12 12.09 ЮЗ 5 30 км 9/0
[Cs]
+25.5 +9.8 37 +26 +29 жарко 1024.4 1004.0
15 12.09 ЮЗ 2 30 км 9/4 600 м
[Sc Cs]
+24.8 +9.5 38 +26 +26 жарко 1023.4 1003.0
18 12.09 штиль 0 22 км 3/0
[Ci fib]
+18.2 +12.9 71 +18 +18 1024.2 1003.4 +26.4
21 12.09 штиль 0 18 км 3/0 2000 м
[Ac und Ci fib]
+14.2 +12.1 87 +14 +14 1024.8 1003.7
00 13.09 штиль 0 18 км 4/0 2000 м
[Ac und Ci fib]
+12.5 +10.7 89 +12 +12 1025.0 1003.7
03 13.09 штиль 0 10 км 6/0
[Ci fib]
+10.1 +9.6 97 +9 +9 1024.9 1003.4
06 13.09 З 1 15 км 8/0 2000 м
[Ac und Cc]
+13.3 +11.9 91 +13 +15 1025.0 1003.8 +9.1
09 13.09 З 4 25 км 8/1 600 м
[Sc Ac und]
+19.5 +11.0 58 +21 +23 комфорт 1023.8 1003.0
12 13.09 З 5
{10}
28 км 8/6 600 м
[Cu Sc Ac und]
+21.0 +10.2 50 +23 +24 комфорт 1021.9 1001.3
15 13.09 ЮЗ 3
{10}
24 км 9/5 600 м
[Sc Ac und]
+19.1 +11.7 62 +20 +20 1020.1 999.4
18 13.09 З 4 22 км 9/8 600 м
[Sc Ac und]
+19.0 +12.0 64 +20 +20 1018.8 998.1 +21.2
21 13.09 СЗ 4
{12}
13 км в посл. час ливневой дождь 9/6 600 м
[Sc Ac und]
+15.2 +13.7 91 +14 +14 1019.2 998.3
00 14.09 СЗ 2 10 км {ливн. осадки} 9/0 2000 м
[Ac und Cs]
+11.3 +10.2 93 +10 +10 1021.5 1000.2
03 14.09 СЗ 3 8000 м дымка 3/3 600 м
[Sc Ac und]
+9.6 +9.1 97 +7 +7 1023.0 1001.5
06 14.09 СЗ 2 9000 м дымка 5/3 600 м
[Sc Ac und]
+10.4 +9.5 94 +9 +10 1024.4 1003.0 +9.0 0.3
09 14.09 СЗ 4 25 км 4/4 600 м
[Cu med, cong]
+15.9 +9.1 64 +15 +18 1024.9 1003.9
12 14.09 З 5
{11}
30 км 8/8 600 м
[Cb cap]
+18.2 +6.1 45 +18 +19 1023.8 1002.9
15 14.09 СЗ 7-14
{14}
8000 м слаб. ливневой дождь {гроза} 9/8 600 м
[Cb cap Ac und]
+15.1 +7.6 61 +13 +13 1024.2 1003.1
18 14.09 З 2
{14}
16 км {гроза, ливн. осадки} 8/3 600 м
[Sc Ac und Cs]
+10.8 +8.0 83 +9 +9 1024.5 1003.1 +18.6 2
21 14.09 З 1 12 км 9/0
[Cs]
+8.3 +7.1 92 +7 +7 1025.0 1003.4
00 15.09 СЗ 1 13 км 6/0
[Cs]
+7.7 +6.2 90 +7 +7 1024.8 1003.1
03 15.09 З 1 9000 м дымка 4/0
[Cs]
+5.2 +4.9 98 +4 +4 1024.8 1002.9
06 15.09 ЮЗ 2 13 км 9/0 2000 м
[Ac und Cs]
+8.8 +7.7 93 +7 +8 1022.7 1001.2 +4.7
09 15.09 З 6-11
{11}
25 км 9/6 600 м
[Cu med, cong Cs]
+15.2 +8.2 63 +14 +15 1020.3 999.3
12 15.09 З 5-11
{12}
28 км 10/3 600 м
[Cu med, cong Ac und Cs]
+16.6 +5.2 47 +16 +17 1016.8 996.0
15 15.09 ЮЗ 4
{13}
28 км 10/0 2000 м
[Ac und Cs]
+16.2 +6.3 52 +16 +16 1013.5 992.7
18 15.09 ЮЗ 4
{10}
22 км 8/0 2000 м
[Ac und]
+14.1 +6.5 60 +13 +13 1011.1 990.2 +16.9
21 15.09 З 4
{11}
20 км 9/5 600 м
[Sc Ac und]
+14.4 +7.2 62 +13 +13 1008.5 987.7
00 16.09 З 4
{10}
18 км {ливн. осадки} 9/6 600 м
[Sc Ac und]
+14.4 +8.1 66 +13 +13 1007.0 986.2
03 16.09 З 5
{10}
16 км 8/5 600 м
[Sc Ac und]
+14.5 +8.7 68 +13 +13 1006.1 985.3
06 16.09 СЗ 4 16 км в посл. час ливневой дождь 8/8 600 м
[Sc]
+13.7 +8.1 69 +12 +13 1006.8 986.0 +13.0 0.0
09 16.09 З 7-11
{13}
28 км 8/8 600 м
[Cu Sc]
+16.5 +5.8 49 +15 +16 1006.9 986.3
12 16.09 З 8-13
{15}
28 км 9/8 600 м
[Sc Ac und]
+16.2 +5.5 49 +15 +15 1007.3 986.6
15 16.09 З 6-11
{13}
28 км 8/5 600 м
[Sc Ac und Ci fib]
+16.0 +6.2 52 +15 +15 1006.5 985.8
18 16.09 З 4
{11}
21 км 4/0 2000 м
[Ac und Ci fib]
+13.0 +6.4 64 +11 +11 1006.8 985.9 +17.4
21 16.09 З 5
{10}
18 км 6/0 2000 м
[Ac und Ci fib]
+11.5 +5.8 68 +9 +9 1006.7 985.7
00 17.09 З 3 15 км 8/0 2000 м
[Ac und]
+9.8 +6.0 77 +8 +8 1006.2 985.1
03 17.09 З 2 13 км 3/0 2000 м
[Ac und]
+8.1 +6.1 87 +6 +6 1005.7 984.5
06 17.09 З 5 15 км 4/0 2000 м
[Ac und Ci fib]
+9.7 +6.6 81 +7 +7 1005.8 984.7 +7.4
09 17.09 З 6
{10}
25 км 8/8 600 м
[Cu med, cong]
+14.0 +5.4 56 +12 +13 1005.6 984.8
12 17.09 СЗ 3
{12}
25 км в посл. час ливневой дождь 9/5 600 м
[Cu Sc Ac und Ci fib]
+13.7 +5.8 59 +13 +14 1005.0 984.2
15 17.09 З 3
{10}
25 км 9/8 600 м
[Sc Ac und]
+12.9 +5.8 62 +12 +12 1003.5 982.7
18 17.09 З 4
{10}
9000 м слаб. ливневой дождь 9/8 600 м
[Cb cap Ac und]
+9.0 +7.4 90 +6 +6 1003.0 981.9 +16.0 3
21 17.09 ЮЗ 3 9000 м дымка {ливн. осадки} 10/0 2000 м
[As trans]
+7.8 +6.9 94 +5 +5 1000.0 978.9
00 18.09 З 3 9000 м дымка {ливн. осадки} 8/0 2000 м
[Ac und]
+6.9 +6.3 96 +4 +4 999.4 978.2
03 18.09 З 2 8000 м в посл. час ливневой дождь 9/8 600 м
[Cb cap Ac und]
+6.8 +6.5 98 +4 +4 998.6 977.4
06 18.09 СЗ 3 9000 м дымка {ливн. осадки} 9/9 750 м
[Sc]
+7.5 +6.4 93 +5 +5 999.6 978.5 +6.7 4
09 18.09 СЗ 5
{10}
25 км 8/8 600 м
[Sc]
+9.4 +6.5 82 +6 +7 1001.4 980.4
12 18.09 СЗ 6-11
{12}
20 км 9/9 700 м
[Sc]
+8.3 +5.8 84 +4 +4 1003.9 982.7
15 18.09 СЗ 4
{11}
15 км в посл. час дождь 9/8 600 м
[Sc Ac und]
+9.1 +7.4 89 +6 +6 1006.3 985.1
18 18.09 З 2 14 км {дождь} 5/3 600 м
[Sc Ac und]
+7.6 +6.1 90 +5 +5 1009.1 987.8 +10.9 0.6
21 18.09 СЗ 3 10 км 9/6 600 м
[Sc Ac und]
+7.3 +6.2 93 +4 +4 1010.7 989.3
00 19.09 З 3 8000 м в посл. час ливневой дождь 9/8 600 м
[Sc Ac und]
+7.3 +6.7 96 +4 +4 1011.8 990.4
03 19.09 З 3 8000 м дымка 9/8 600 м
[Sc Ac und]
+7.9 +7.1 95 +5 +5 1012.5 991.1
06 19.09 СЗ 3 9000 м слаб. ливневой дождь 9/8 600 м
[Cb cap Ac und]
+8.8 +7.7 93 +6 +6 1013.7 992.4 +6.7 0.1
09 19.09 СЗ 3 25 км {ливн. осадки} 8/8 600 м
[Cu Sc Ac und]
+10.3 +6.8 79 +8 +9 1015.0 993.7

 

Местоположение метеостанции Марьина Горка (Минская область, Беларусь): широта 53.45 долгота 28.13 высота над уровнем моря 177 м.

В архиве по умолчанию представлена погода в Марьиной Горке за последнюю неделю. Архивные данные за месяц целиком и за предыдущие месяцы, начиная с января 2011 года, Вы можете получить, выбрав интересующий диапазон дат из раскрывающегося списка и нажав кнопку "Ввод!".


*Определитесь, кто Вы:
робот инопланетянин человек

Внимание! Время в таблицах - всемирное. Для получения местного времени необходимо прибавить поправку, которая равна 3 ч.

Смотрите также архив погоды в соседних городах и на ближайших метеорологических станциях:

Погода в Слуцке (Минская область, Беларусь) (61 км)
Погода в Минске (город Минск, Беларусь) (63 км)
Погода в Березино (Минская область, Беларусь) (71 км)
Погода в Бобруйске (Могилевская область, Беларусь) (72 км)
Погода в Кличеве (Могилевская область, Беларусь) (79 км)
Погода в Столбцах (Минская область, Беларусь) (93 км)
Погода в Борисове (Минская область, Беларусь) (94 км)
Погода в Октябре (Гомельская область, Беларусь) (104 км)
Погода в Воложине (Минская область, Беларусь) (128 км)
Погода в Ганцевичах (Брестская область, Беларусь) (137 км)

Пояснения к столбцам:

Ветер - указаны скорость ветра в м/с - средняя за 10 мин, порывы в срок и между сроками (в фигурных скобках) и направление, откуда дует ветер: С - северный, СВ - северо-восточный, В - восточный, ЮВ - юго-восточный, Ю - южный, ЮЗ - юго-западный, З - западный, СЗ - северо-западный.
Видимость - горизонтальная дальность видимости в метрах или километрах. При видимости от 1 до 10 км при отсутствии осадков обычно наблюдается дымка, при ухудшении видимости до 1 км и менее - туман. В сухую погоду видимость может ухудшаться дымом, пылью или мглою.
Явления - указаны атмосферные явления, наблюдавшиеся в срок или в последний час перед сроком; фигурными скобками обозначены явления, наблюдавшиеся между сроками (за 1-3 часа до срока); квадратными скобками обозначены град или гололедные отложения с указанием их диаметра в мм.
Облачность - указаны через наклонную черту общая и нижняя облачность в баллах и высота нижней границы облаков в метрах; квадратными скобками обозначены формы облаков: Ci - перистые, Cs - перисто-слоистые, Cc - перисто-кучевые, Ac - высококучевые, As - высокослоистые, Sc - слоисто-кучевые, Ns - слоисто-дождевые, Cu - кучевые, Cb - кучево-дождевые. Подробнее классификацию облаков см. в Атласе облаков (PDF).
T - Температура воздуха - температура, измеренная на высоте 2 м над землей.
Td - Температура точки росы - температура, при понижении до которой содержащийся в воздухе водяной пар достигнет насыщения.
f - Относительная влажность воздуха - влажноcть воздуха, измеренная на высоте 2 м над землей.
Te - Эффективная температура - температура, которую ощущает одетый по сезону человек в тени. Характеристика душности погоды. При расчете учитывается влияние влажности воздуха и скорости ветра на теплоощущения человека.
Tes - Эффективная температура на солнце - температура, которую ощущает человек, с поправкой на солнечный нагрев. Характеристика знойности погоды. Зависит от высоты солнца над горизонтом, облачности и скорости ветра. Ночью, в пасмурную погоду, а также при ветре 12 м/с и более поправка равна нулю.
P - Атмосферное давление - приведенное к уровню моря атмосферное давление.
Po - Атмосферное давление - измеренное на уровне метеостанции атмосферное давление.
Tmin - Минимальная температура - минимум температуры воздуха на высоте 2 м над землей.
Tmax - Максимальная температура - максимум температуры воздуха на высоте 2 м над землей.
R - Количество осадков - Количество выпавших осадков за период времени, мм. При наведении курсора мыши на число - период времени, за который выпало указанное количество осадков.
R24 - Количество осадков - Количество выпавших осадков за 24 часа, мм.
S - Снежный покров - Высота снежного покрова, см. При наведении курсора мыши на число - состояние снежного покрова и степень покрытия местности в баллах.